Wetterdaten: Dienstag, 25.11.2014
Datum Zeit Temp. A. Feuchte A. Luftdruck Regen Wind Richtung Richtung Sonnenschein ET UV Solar Taupunkt Windchill Windben Empfang
25.11.2014 00:00 3,3 C 83 % 1026,9 hPa 0,0 l/m 0,7 km/h (0 Bft) S 191 0 min 0,000 mm 0,0 UV-I 0 W/m 0,7 C 3,3 C 4,0 km/h (1 Bft) 0,00 %
25.11.2014 00:15 3,3 C 83 % 1026,4 hPa 0,0 l/m 0,0 km/h (0 Bft) O 95 0 min 0,000 mm 0,0 UV-I 0 W/m 0,7 C 3,3 C 0,0 km/h (0 Bft) 0,00 %
25.11.2014 00:30 3,3 C 83 % 1026,5 hPa 0,0 l/m 1,4 km/h (1 Bft) O-SO 111 0 min 0,000 mm 0,0 UV-I 0 W/m 0,7 C 3,3 C 4,0 km/h (1 Bft) 0,00 %
25.11.2014 00:45 3,4 C 83 % 1026,5 hPa 0,0 l/m 0,0 km/h (0 Bft) S-SO 147 0 min 0,000 mm 0,0 UV-I 0 W/m 0,8 C 3,4 C 0,0 km/h (0 Bft) 0,00 %
25.11.2014 01:00 3,4 C 83 % 1026,3 hPa 0,0 l/m 0,0 km/h (0 Bft) S 184 0 min 0,000 mm 0,0 UV-I 0 W/m 0,8 C 3,4 C 0,0 km/h (0 Bft) 0,00 %
25.11.2014 01:15 3,4 C 83 % 1026,3 hPa 0,0 l/m 2,9 km/h (1 Bft) SO 129 0 min 0,000 mm 0,0 UV-I 0 W/m 0,8 C 3,4 C 4,0 km/h (1 Bft) 0,00 %
25.11.2014 01:30 3,4 C 83 % 1026,5 hPa 0,0 l/m 0,0 km/h (0 Bft) S 173 0 min 0,000 mm 0,0 UV-I 0 W/m 0,8 C 3,4 C 0,0 km/h (0 Bft) 0,00 %
25.11.2014 01:45 3,4 C 83 % 1026,5 hPa 0,0 l/m 0,0 km/h (0 Bft) S-SO 166 0 min 0,000 mm 0,0 UV-I 0 W/m 0,8 C 3,4 C 0,0 km/h (0 Bft) 0,00 %
25.11.2014 02:00 3,5 C 82 % 1026,4 hPa 0,0 l/m 0,0 km/h (0 Bft) S 174 0 min 0,000 mm 0,0 UV-I 0 W/m 0,7 C 3,5 C 0,0 km/h (0 Bft) 0,00 %
25.11.2014 02:15 3,5 C 83 % 1026,4 hPa 0,0 l/m 0,0 km/h (0 Bft) S 190 0 min 0,000 mm 0,0 UV-I 0 W/m 0,9 C 3,5 C 0,0 km/h (0 Bft) 0,00 %
25.11.2014 02:30 3,5 C 83 % 1026,3 hPa 0,0 l/m 0,0 km/h (0 Bft) SO 137 0 min 0,000 mm 0,0 UV-I 0 W/m 0,9 C 3,5 C 0,0 km/h (0 Bft) 0,00 %
25.11.2014 02:45 3,5 C 83 % 1026,4 hPa 0,0 l/m 0,0 km/h (0 Bft) S-SO 152 0 min 0,000 mm 0,0 UV-I 0 W/m 0,9 C 3,5 C 0,0 km/h (0 Bft) 0,00 %
25.11.2014 03:00 3,5 C 83 % 1026,2 hPa 0,0 l/m 0,0 km/h (0 Bft) SW 228 0 min 0,000 mm 0,0 UV-I 0 W/m 0,9 C 3,5 C 0,0 km/h (0 Bft) 0,00 %
25.11.2014 03:15 3,5 C 83 % 1026,3 hPa 0,0 l/m 0,0 km/h (0 Bft) S 180 0 min 0,000 mm 0,0 UV-I 0 W/m 0,9 C 3,5 C 0,0 km/h (0 Bft) 0,00 %
25.11.2014 03:30 3,5 C 83 % 1026,1 hPa 0,0 l/m 0,0 km/h (0 Bft) S 178 0 min 0,000 mm 0,0 UV-I 0 W/m 0,9 C 3,5 C 0,0 km/h (0 Bft) 0,00 %
25.11.2014 03:45 3,5 C 83 % 1026,2 hPa 0,0 l/m 0,0 km/h (0 Bft) W-NW 293 0 min 0,000 mm 0,0 UV-I 0 W/m 0,9 C 3,5 C 0,0 km/h (0 Bft) 0,00 %
25.11.2014 04:00 3,5 C 83 % 1026,1 hPa 0,0 l/m 0,0 km/h (0 Bft) O 95 0 min 0,000 mm 0,0 UV-I 0 W/m 0,9 C 3,5 C 0,0 km/h (0 Bft) 0,00 %
25.11.2014 04:15 3,5 C 83 % 1026,2 hPa 0,0 l/m 1,8 km/h (1 Bft) S 178 0 min 0,000 mm 0,0 UV-I 0 W/m 0,9 C 3,5 C 4,0 km/h (1 Bft) 0,00 %
25.11.2014 04:30 3,5 C 83 % 1026,1 hPa 0,0 l/m 0,0 km/h (0 Bft) SO 135 0 min 0,000 mm 0,0 UV-I 0 W/m 0,9 C 3,5 C 0,0 km/h (0 Bft) 0,00 %
25.11.2014 04:45 3,5 C 83 % 1026,1 hPa 0,0 l/m 0,0 km/h (0 Bft) S-SW 209 0 min 0,000 mm 0,0 UV-I 0 W/m 0,9 C 3,5 C 0,0 km/h (0 Bft) 0,00 %
25.11.2014 05:00 3,5 C 83 % 1025,9 hPa 0,0 l/m 0,4 km/h (0 Bft) O-NO 64 0 min 0,000 mm 0,0 UV-I 0 W/m 0,9 C 3,5 C 4,0 km/h (1 Bft) 0,00 %
25.11.2014 05:15 3,4 C 84 % 1026,1 hPa 0,0 l/m 5,4 km/h (1 Bft) O 94 0 min 0,000 mm 0,0 UV-I 0 W/m 1,0 C 3,4 C 7,9 km/h (2 Bft) 0,00 %
25.11.2014 05:30 3,4 C 84 % 1026,0 hPa 0,0 l/m 3,2 km/h (1 Bft) O 101 0 min 0,000 mm 0,0 UV-I 0 W/m 1,0 C 3,4 C 4,0 km/h (1 Bft) 0,00 %
25.11.2014 05:45 3,4 C 84 % 1026,1 hPa 0,0 l/m 3,2 km/h (1 Bft) O-SO 112 0 min 0,000 mm 0,0 UV-I 0 W/m 1,0 C 3,4 C 4,0 km/h (1 Bft) 0,00 %
25.11.2014 06:00 3,4 C 84 % 1026,0 hPa 0,0 l/m 0,4 km/h (0 Bft) O-SO 122 0 min 0,000 mm 0,0 UV-I 0 W/m 1,0 C 3,4 C 4,0 km/h (1 Bft) 0,00 %
25.11.2014 06:15 3,4 C 84 % 1026,0 hPa 0,0 l/m 1,4 km/h (1 Bft) SO 135 0 min 0,000 mm 0,0 UV-I 0 W/m 1,0 C 3,4 C 4,0 km/h (1 Bft) 0,00 %
25.11.2014 06:30 3,4 C 84 % 1026,0 hPa 0,0 l/m 0,4 km/h (0 Bft) NO 45 0 min 0,000 mm 0,0 UV-I 0 W/m 1,0 C 3,4 C 4,0 km/h (1 Bft) 0,00 %
25.11.2014 06:45 3,4 C 84 % 1026,0 hPa 0,0 l/m 0,7 km/h (0 Bft) O-NO 59 0 min 0,000 mm 0,0 UV-I 0 W/m 1,0 C 3,4 C 4,0 km/h (1 Bft) 0,00 %
25.11.2014 07:00 3,4 C 83 % 1026,1 hPa 0,0 l/m 2,2 km/h (1 Bft) SO 127 0 min 0,000 mm 0,0 UV-I 0 W/m 0,8 C 3,4 C 7,9 km/h (2 Bft) 0,00 %
25.11.2014 07:15 3,4 C 83 % 1026,2 hPa 0,0 l/m 4,0 km/h (1 Bft) O 98 0 min 0,000 mm 0,0 UV-I 0 W/m 0,8 C 3,4 C 7,9 km/h (2 Bft) 0,00 %
25.11.2014 07:30 3,4 C 83 % 1026,4 hPa 0,0 l/m 2,2 km/h (1 Bft) S 174 0 min 0,000 mm 0,0 UV-I 0 W/m 0,8 C 3,4 C 4,0 km/h (1 Bft) 0,00 %
25.11.2014 07:45 3,4 C 83 % 1026,4 hPa 0,0 l/m 4,3 km/h (1 Bft) S 187 0 min 0,000 mm 0,0 UV-I 0 W/m 0,8 C 3,4 C 7,9 km/h (2 Bft) 0,00 %
25.11.2014 08:00 3,3 C 83 % 1026,5 hPa 0,0 l/m 6,5 km/h (2 Bft) SO 128 0 min 0,000 mm 0,0 UV-I 0 W/m 0,7 C 3,2 C 7,9 km/h (2 Bft) 0,00 %
25.11.2014 08:15 3,3 C 83 % 1026,4 hPa 0,0 l/m 6,8 km/h (2 Bft) O-SO 123 0 min 0,000 mm 0,0 UV-I 17 W/m 0,7 C 2,9 C 7,9 km/h (2 Bft) 0,00 %
25.11.2014 08:30 3,3 C 83 % 1026,4 hPa 0,0 l/m 0,4 km/h (0 Bft) N-NW 345 0 min 0,000 mm 0,0 UV-I 20 W/m 0,7 C 3,3 C 4,0 km/h (1 Bft) 0,00 %
25.11.2014 08:45 3,3 C 83 % 1026,3 hPa 0,0 l/m 2,2 km/h (1 Bft) S-SO 167 0 min 0,000 mm 0,0 UV-I 31 W/m 0,7 C 3,3 C 4,0 km/h (1 Bft) 0,00 %
25.11.2014 09:00 3,3 C 83 % 1026,3 hPa 0,0 l/m 5,4 km/h (1 Bft) O 94 0 min 0,000 mm 0,0 UV-I 44 W/m 0,7 C 3,3 C 7,9 km/h (2 Bft) 0,00 %
25.11.2014 09:15 3,5 C 82 % 1026,4 hPa 0,0 l/m 2,9 km/h (1 Bft) O 101 0 min 0,000 mm 1,0 UV-I 55 W/m 0,7 C 3,5 C 4,0 km/h (1 Bft) 0,00 %
25.11.2014 09:30 3,6 C 81 % 1026,4 hPa 0,0 l/m 9,0 km/h (2 Bft) S 181 0 min 0,000 mm 1,0 UV-I 66 W/m 0,7 C 1,3 C 11,9 km/h (2 Bft) 0,00 %
25.11.2014 09:45 3,8 C 80 % 1026,4 hPa 0,0 l/m 0,7 km/h (0 Bft) S 174 0 min 0,000 mm 1,0 UV-I 77 W/m 0,7 C 3,8 C 4,0 km/h (1 Bft) 0,00 %
25.11.2014 10:00 4,0 C 79 % 1026,3 hPa 0,0 l/m 3,2 km/h (1 Bft) O-NO 73 0 min 0,000 mm 1,0 UV-I 88 W/m 0,7 C 4,0 C 7,9 km/h (2 Bft) 0,00 %
25.11.2014 10:15 4,2 C 79 % 1026,3 hPa 0,0 l/m 5,4 km/h (1 Bft) O 79 0 min 0,000 mm 1,0 UV-I 99 W/m 0,9 C 4,2 C 11,9 km/h (2 Bft) 0,00 %
25.11.2014 10:30 4,2 C 77 % 1026,1 hPa 0,0 l/m 18,0 km/h (3 Bft) O-SO 115 0 min 0,000 mm 1,0 UV-I 111 W/m 0,5 C -3,4 C 24,1 km/h (4 Bft) 0,00 %
25.11.2014 10:45 4,0 C 78 % 1025,9 hPa 0,0 l/m 16,6 km/h (3 Bft) O-SO 115 0 min 0,000 mm 2,0 UV-I 122 W/m 0,5 C -2,9 C 19,8 km/h (3 Bft) 0,00 %
25.11.2014 11:00 4,4 C 75 % 1025,7 hPa 0,0 l/m 9,4 km/h (2 Bft) O-SO 106 0 min 0,000 mm 2,0 UV-I 133 W/m 0,4 C 1,9 C 11,9 km/h (2 Bft) 0,00 %
25.11.2014 11:15 4,6 C 75 % 1025,6 hPa 0,0 l/m 0,4 km/h (0 Bft) N-NO 29 0 min 0,000 mm 2,0 UV-I 144 W/m 0,6 C 4,6 C 4,0 km/h (1 Bft) 0,00 %
25.11.2014 11:30 4,5 C 74 % 1025,6 hPa 0,0 l/m 4,7 km/h (1 Bft) O-NO 69 0 min 0,000 mm 2,0 UV-I 155 W/m 0,3 C 4,5 C 7,9 km/h (2 Bft) 0,00 %
25.11.2014 11:45 4,7 C 74 % 1025,5 hPa 0,0 l/m 10,4 km/h (2 Bft) O 96 0 min 0,000 mm 2,0 UV-I 166 W/m 0,5 C 1,5 C 11,9 km/h (2 Bft) 0,00 %
25.11.2014 12:00 4,9 C 73 % 1025,3 hPa 0,0 l/m 9,0 km/h (2 Bft) NO 46 0 min 0,000 mm 2,0 UV-I 188 W/m 0,5 C 2,7 C 11,9 km/h (2 Bft) 0,00 %
25.11.2014 12:15 4,8 C 73 % 1025,1 hPa 0,0 l/m 14,0 km/h (3 Bft) O-NO 60 0 min 0,000 mm 1,0 UV-I 199 W/m 0,4 C -0,6 C 19,8 km/h (3 Bft) 0,00 %
25.11.2014 12:30 4,7 C 73 % 1025,1 hPa 0,0 l/m 1,4 km/h (1 Bft) O-SO 110 15 min 0,000 mm 1,0 UV-I 211 W/m 0,3 C 4,7 C 4,0 km/h (1 Bft) 0,00 %
25.11.2014 12:45 4,7 C 73 % 1024,9 hPa 0,0 l/m 5,4 km/h (1 Bft) O-SO 114 15 min 0,000 mm 1,0 UV-I 222 W/m 0,3 C 4,7 C 11,9 km/h (2 Bft) 0,00 %
25.11.2014 13:00 4,7 C 73 % 1025,2 hPa 0,0 l/m 9,0 km/h (2 Bft) O-SO 113 0 min 0,000 mm 1,0 UV-I 111 W/m 0,3 C 2,5 C 11,9 km/h (2 Bft) 0,00 %
25.11.2014 13:15 4,6 C 73 % 1024,8 hPa 0,0 l/m 3,2 km/h (1 Bft) S 171 0 min 0,000 mm 1,0 UV-I 123 W/m 0,2 C 4,6 C 7,9 km/h (2 Bft) 0,00 %
25.11.2014 13:30 4,4 C 74 % 1024,7 hPa 0,0 l/m 4,0 km/h (1 Bft) O-NO 71 0 min 0,000 mm 1,0 UV-I 124 W/m 0,2 C 4,4 C 7,9 km/h (2 Bft) 0,00 %
25.11.2014 13:45 4,3 C 75 % 1024,5 hPa 0,0 l/m 8,3 km/h (2 Bft) O-SO 106 15 min 0,000 mm 1,0 UV-I 171 W/m 0,3 C 2,6 C 11,9 km/h (2 Bft) 0,00 %
25.11.2014 14:00 4,3 C 73 % 1024,5 hPa 0,0 l/m 7,2 km/h (2 Bft) SO 143 15 min 0,000 mm 1,0 UV-I 157 W/m -0,1 C 3,6 C 19,8 km/h (3 Bft) 0,00 %
25.11.2014 14:15 4,2 C 74 % 1024,3 hPa 0,0 l/m 6,5 km/h (2 Bft) S 169 15 min 0,000 mm 1,0 UV-I 177 W/m -0,0 C 4,1 C 7,9 km/h (2 Bft) 0,00 %
25.11.2014 14:30 4,2 C 73 % 1024,5 hPa 0,0 l/m 17,3 km/h (3 Bft) O 97 15 min 0,000 mm 1,0 UV-I 196 W/m -0,2 C -3,0 C 24,1 km/h (4 Bft) 0,00 %
25.11.2014 14:45 4,0 C 73 % 1024,2 hPa 0,0 l/m 11,9 km/h (2 Bft) O 100 15 min 0,000 mm 1,0 UV-I 127 W/m -0,4 C -0,3 C 15,8 km/h (3 Bft) 0,00 %
25.11.2014 15:00 3,9 C 73 % 1024,4 hPa 0,0 l/m 4,0 km/h (1 Bft) O 96 0 min 0,000 mm 0,0 UV-I 88 W/m -0,5 C 3,9 C 7,9 km/h (2 Bft) 0,00 %
25.11.2014 15:15 3,9 C 73 % 1024,6 hPa 0,0 l/m 9,4 km/h (2 Bft) O-SO 102 0 min 0,000 mm 0,0 UV-I 43 W/m -0,5 C 1,3 C 15,8 km/h (3 Bft) 0,00 %
25.11.2014 15:30 3,8 C 73 % 1024,6 hPa 0,0 l/m 13,0 km/h (3 Bft) O-NO 70 0 min 0,000 mm 0,0 UV-I 0 W/m -0,6 C -1,2 C 15,8 km/h (3 Bft) 0,00 %
25.11.2014 15:45 3,8 C 73 % 1024,7 hPa 0,0 l/m 13,0 km/h (3 Bft) S-SO 160 0 min 0,000 mm 0,0 UV-I 0 W/m -0,6 C -1,2 C 15,8 km/h (3 Bft) 0,00 %
25.11.2014 16:00 3,7 C 73 % 1024,6 hPa 0,0 l/m 4,3 km/h (1 Bft) O-SO 121 0 min 0,000 mm 0,0 UV-I 0 W/m -0,7 C 3,7 C 7,9 km/h (2 Bft) 0,00 %
25.11.2014 16:15 3,6 C 73 % 1024,7 hPa 0,0 l/m 9,7 km/h (2 Bft) O 99 0 min 0,000 mm 0,0 UV-I 0 W/m -0,8 C 0,8 C 15,8 km/h (3 Bft) 0,00 %
25.11.2014 16:30 3,5 C 74 % 1024,4 hPa 0,0 l/m 15,5 km/h (3 Bft) O 94 0 min 0,000 mm 0,0 UV-I 0 W/m -0,7 C -3,0 C 19,8 km/h (3 Bft) 0,00 %
25.11.2014 16:45 3,5 C 74 % 1024,6 hPa 0,0 l/m 14,8 km/h (3 Bft) O 88 0 min 0,000 mm 0,0 UV-I 0 W/m -0,7 C -2,6 C 28,1 km/h (4 Bft) 0,00 %
25.11.2014 17:00 3,4 C 74 % 1024,6 hPa 0,0 l/m 4,3 km/h (1 Bft) S 172 0 min 0,000 mm 0,0 UV-I 0 W/m -0,8 C 3,4 C 7,9 km/h (2 Bft) 0,00 %
25.11.2014 17:15 3,4 C 76 % 1024,4 hPa 0,0 l/m 5,8 km/h (2 Bft) O-SO 106 0 min 0,000 mm 0,0 UV-I 0 W/m -0,4 C 3,4 C 7,9 km/h (2 Bft) 0,00 %
25.11.2014 17:30 3,4 C 76 % 1024,3 hPa 0,0 l/m 11,5 km/h (2 Bft) O-SO 117 0 min 0,000 mm 0,0 UV-I 0 W/m -0,4 C -0,8 C 15,8 km/h (3 Bft) 0,00 %
25.11.2014 17:45 3,3 C 76 % 1024,1 hPa 0,0 l/m 4,7 km/h (1 Bft) O 89 0 min 0,000 mm 0,0 UV-I 0 W/m -0,5 C 3,3 C 11,9 km/h (2 Bft) 0,00 %
25.11.2014 18:00 3,3 C 75 % 1024,0 hPa 0,0 l/m 11,9 km/h (2 Bft) O 93 0 min 0,000 mm 0,0 UV-I 0 W/m -0,7 C -1,1 C 15,8 km/h (3 Bft) 0,00 %
25.11.2014 18:15 3,3 C 75 % 1023,9 hPa 0,0 l/m 0,4 km/h (0 Bft) O 93 0 min 0,000 mm 0,0 UV-I 0 W/m -0,7 C 3,3 C 4,0 km/h (1 Bft) 0,00 %
25.11.2014 18:30 3,3 C 75 % 1023,9 hPa 0,0 l/m 9,7 km/h (2 Bft) O 91 0 min 0,000 mm 0,0 UV-I 0 W/m -0,7 C 0,4 C 11,9 km/h (2 Bft) 0,00 %
25.11.2014 18:45 3,3 C 75 % 1023,7 hPa 0,0 l/m 6,5 km/h (2 Bft) O 91 0 min 0,000 mm 0,0 UV-I 0 W/m -0,7 C 3,2 C 11,9 km/h (2 Bft) 0,00 %
25.11.2014 19:00 3,3 C 75 % 1023,6 hPa 0,0 l/m 13,0 km/h (3 Bft) O-SO 109 0 min 0,000 mm 0,0 UV-I 0 W/m -0,7 C -1,8 C 15,8 km/h (3 Bft) 0,00 %
25.11.2014 19:15 3,4 C 75 % 1023,6 hPa 0,0 l/m 20,5 km/h (4 Bft) O 90 0 min 0,000 mm 0,0 UV-I 0 W/m -0,6 C -5,4 C 24,1 km/h (4 Bft) 0,00 %
25.11.2014 19:30 3,4 C 76 % 1023,5 hPa 0,0 l/m 19,1 km/h (3 Bft) O 90 0 min 0,000 mm 0,0 UV-I 0 W/m -0,4 C -4,9 C 24,1 km/h (4 Bft) 0,00 %
25.11.2014 19:45 3,4 C 76 % 1023,4 hPa 0,0 l/m 8,3 km/h (2 Bft) O-SO 107 0 min 0,000 mm 0,0 UV-I 0 W/m -0,4 C 1,7 C 15,8 km/h (3 Bft) 0,00 %
25.11.2014 20:00 3,4 C 75 % 1023,3 hPa 0,0 l/m 15,5 km/h (3 Bft) O-SO 108 0 min 0,000 mm 0,0 UV-I 0 W/m -0,6 C -3,1 C 19,8 km/h (3 Bft) 0,00 %
25.11.2014 20:15 3,4 C 73 % 1023,1 hPa 0,0 l/m 19,8 km/h (3 Bft) O 89 0 min 0,000 mm 0,0 UV-I 0 W/m -1,0 C -5,2 C 24,1 km/h (4 Bft) 0,00 %
25.11.2014 20:30 3,4 C 73 % 1023,1 hPa 0,0 l/m 18,0 km/h (3 Bft) S 183 0 min 0,000 mm 0,0 UV-I 0 W/m -1,0 C -4,4 C 28,1 km/h (4 Bft) 0,00 %
25.11.2014 20:45 3,4 C 74 % 1022,9 hPa 0,0 l/m 19,4 km/h (3 Bft) O 81 0 min 0,000 mm 0,0 UV-I 0 W/m -0,8 C -5,0 C 24,1 km/h (4 Bft) 0,00 %
25.11.2014 21:00 3,5 C 72 % 1023,0 hPa 0,0 l/m 18,0 km/h (3 Bft) O-SO 102 0 min 0,000 mm 0,0 UV-I 0 W/m -1,1 C -4,2 C 24,1 km/h (4 Bft) 0,00 %
25.11.2014 21:15 3,4 C 73 % 1023,0 hPa 0,0 l/m 2,9 km/h (1 Bft) O-NO 59 0 min 0,000 mm 0,0 UV-I 0 W/m -1,0 C 3,4 C 7,9 km/h (2 Bft) 0,00 %
25.11.2014 21:30 3,3 C 74 % 1022,8 hPa 0,0 l/m 5,4 km/h (1 Bft) O-SO 112 0 min 0,000 mm 0,0 UV-I 0 W/m -0,9 C 3,3 C 11,9 km/h (2 Bft) 0,00 %
25.11.2014 21:45 3,2 C 74 % 1022,7 hPa 0,0 l/m 9,7 km/h (2 Bft) S 171 0 min 0,000 mm 0,0 UV-I 0 W/m -1,0 C 0,3 C 15,8 km/h (3 Bft) 0,00 %
25.11.2014 22:00 3,2 C 74 % 1022,6 hPa 0,0 l/m 24,1 km/h (4 Bft) O-SO 110 0 min 0,000 mm 0,0 UV-I 0 W/m -1,0 C -7,1 C 32,0 km/h (5 Bft) 0,00 %
25.11.2014 22:15 3,1 C 75 % 1022,7 hPa 0,0 l/m 13,3 km/h (3 Bft) O 99 0 min 0,000 mm 0,0 UV-I 0 W/m -0,9 C -2,2 C 19,8 km/h (3 Bft) 0,00 %
25.11.2014 22:30 3,1 C 75 % 1022,4 hPa 0,0 l/m 11,9 km/h (2 Bft) O 94 0 min 0,000 mm 0,0 UV-I 0 W/m -0,9 C -1,4 C 15,8 km/h (3 Bft) 0,00 %
25.11.2014 22:45 3,1 C 74 % 1022,4 hPa 0,0 l/m 16,9 km/h (3 Bft) O 83 0 min 0,000 mm 0,0 UV-I 0 W/m -1,1 C -4,2 C 24,1 km/h (4 Bft) 0,00 %
25.11.2014 23:00 3,1 C 74 % 1022,6 hPa 0,0 l/m 16,6 km/h (3 Bft) O-SO 105 0 min 0,000 mm 0,0 UV-I 0 W/m -1,1 C -4,1 C 19,8 km/h (3 Bft) 0,00 %
25.11.2014 23:15 3,0 C 74 % 1022,3 hPa 0,0 l/m 18,4 km/h (3 Bft) O-SO 116 0 min 0,000 mm 0,0 UV-I 0 W/m -1,2 C -5,1 C 28,1 km/h (4 Bft) 0,00 %
25.11.2014 23:30 3,0 C 74 % 1022,1 hPa 0,0 l/m 10,4 km/h (2 Bft) O 89 0 min 0,000 mm 0,0 UV-I 0 W/m -1,2 C -0,4 C 11,9 km/h (2 Bft) 0,00 %
25.11.2014 23:45 2,9 C 74 % 1021,9 hPa 0,0 l/m 20,9 km/h (4 Bft) O 97 0 min 0,000 mm 0,0 UV-I 0 W/m -1,3 C -6,3 C 28,1 km/h (4 Bft) 0,00 %
_ Min-Zeit 23:45 21:00 23:45 - 00:15 - - - - - - 23:45 22:00 00:15 00:00
Minimum _ 2,9 C 72 % 1021,9 hPa - 0,0 km/h (0 Bft) - - - - - - -1,3 C -7,1 C 0,0 km/h (0 Bft) 0,00 %
_ Max-Zeit 12:00 05:15 00:00 00:00 22:00 - - 12:30 00:00 10:45 12:45 05:15 12:30 22:00 00:00
Maximum _ 4,9 C 84 % 1026,9 hPa 0,0 l/m 24,1 km/h
O-SO (4 Bft)
- - 15 min 0,000 mm 2,0 UV-I 222 W/m 1,0 C 4,7 C 32,0 km/h
O-SO (5 Bft)
0,00 %
Durchschnitt _ 3,6 C 78 % 1025,0 hPa #0,0 l/m 7,1 km/h (2 Bft) O - #1:45 h #0,000 mm 1,3 UV-I 119 W/m 0,1 C 1,4 C 10,6 km/h (2 Bft) 0,00 %